ROMMA est une association bénévole à but non lucratif. Votre soutien est indispensable : ADHERER à ROMMA ou FAIRE un DON

Saint-Léger-les-Mélèzes - (05, Hautes-Alpes)

Champsaur (1245 m)   Longitude: 6° 11' 42" E    Latitude: 44° 38' 38" N Station partenaire n°51
 

Détail journalier du     <<     >>

Température Humidité Vent Dir Rafale Dir. rafale Ensol.
Heure (°C) (%) (km/h) (km/h) (min)
01:00 3.7505S8S0
02:00 3.4485S10S0
03:00 4.0464S11S0
04:00 3.8484S10S0
05:00 3.9466S11S0
06:00 4.3434S10S0
07:00 3.7436S10S0
08:00 4.2435S10S0
09:00 4.3425S10S0
10:00 6.3401S6S0
11:00 8.83405S0
12:00 11.32805S30
13:00 13.72503S60
14:00 15.2222S5S60
15:00 15.3232SSO6S60
16:00 14.1253SSO6SSO50
17:00 11.3325S8S0
18:00 9.0376S11S0
19:00 7.4437S11S0
20:00 6.8435S10S0
21:00 6.2436S11S0
22:00 5.8446S10S0
23:00 5.7465S10S0
minuit 5.1444S8S0

Graphique du 15-02-2019

 

Serveur OMMA